Location: Unspecified
(37.4502°S, 0.0000°E)
Time: 03:11:51
(UTC+00:00)

Explorer 11/Cluster Stage 4 - All Passes

Search period start: 04 April 2026 00:00
Search period end: 14 April 2026 00:00
Orbit: 463 x 1175 km, 28.8° (Epoch: 29 March)

Date Brightness Start Highest point End Pass type
(mag) Time Alt. Az. Time Alt. Az. Time Alt. Az.
4 Apr - 03:50:12 10° NNW 03:53:18 16° NNE 03:56:47 10° ENE visible
4 Apr - 05:35:12 10° NW 05:40:08 34° N 05:46:00 10° ENE visible
4 Apr - 07:21:48 10° WNW 07:27:30 38° N 07:34:08 10° ENE daylight
4 Apr - 09:09:25 10° WNW 09:15:02 27° NNW 09:21:11 10° NE daylight
4 Apr - 10:59:59 10° NW 11:02:21 12° NNW 11:04:47 10° N daylight
5 Apr - 03:25:58 10° N 03:28:44 15° NNE 03:31:46 10° ENE visible
5 Apr - 05:10:52 10° NW 05:15:28 32° N 05:21:00 10° ENE visible
5 Apr - 06:57:23 10° WNW 07:02:46 37° N 07:09:07 10° ENE daylight
5 Apr - 08:44:54 10° WNW 08:50:15 26° NNW 08:56:09 10° NE daylight
5 Apr - 10:35:41 10° NW 10:37:34 11° NNW 10:39:28 10° NNW daylight
6 Apr - 03:01:46 10° N 03:04:10 14° NNE 03:06:48 10° ENE visible
6 Apr - 04:46:32 10° NW 04:50:52 30° N 04:56:02 10° ENE visible
6 Apr - 06:33:00 10° WNW 06:38:04 35° N 06:44:06 10° ENE daylight
6 Apr - 08:20:27 10° WNW 08:25:28 24° NNW 08:31:06 10° NNE daylight
6 Apr - 10:11:46 10° NW 10:12:46 10° NNW 10:13:47 10° NNW daylight
7 Apr - 02:37:35 10° N 02:39:37 13° NNE 02:41:50 10° NE visible
7 Apr - 04:22:14 10° NW 04:26:16 29° N 04:31:05 10° ENE visible
7 Apr - 06:08:38 10° WNW 06:13:24 33° N 06:19:04 10° ENE daylight
7 Apr - 07:56:02 10° WNW 08:00:43 23° NNW 08:06:00 10° NNE daylight
8 Apr - 02:13:24 10° N 02:15:06 12° NNE 02:16:54 10° NE night (unlit)
8 Apr - 03:57:56 10° NW 04:01:42 27° N 04:06:08 10° ENE visible
8 Apr - 05:44:17 10° WNW 05:48:45 31° N 05:54:03 10° ENE visible
8 Apr - 07:31:41 10° WNW 07:36:00 21° NNW 07:40:54 10° NNE daylight
9 Apr - 01:49:14 10° N 01:50:35 11° NNE 01:51:59 10° NE night (unlit)
9 Apr - 03:33:38 10° NW 03:37:10 26° N 03:41:15 10° ENE visible
9 Apr - 05:19:58 10° WNW 05:24:08 29° N 05:29:04 10° NE visible
9 Apr - 07:07:23 10° WNW 07:11:19 20° NNW 07:15:46 10° NNE daylight
10 Apr - 01:25:03 10° N 01:26:04 11° NNE 01:27:07 10° NE night (unlit)
10 Apr - 03:09:20 10° NW 03:12:38 24° N 03:16:24 10° ENE visible
10 Apr - 04:55:41 10° WNW 04:59:33 27° N 05:04:05 10° NE visible
10 Apr - 06:43:07 10° WNW 06:46:39 18° NNW 06:50:38 10° NNE daylight
11 Apr - 01:00:50 10° N 01:01:34 10° NNE 01:02:19 10° NNE night (unlit)
11 Apr - 02:45:01 10° NW 02:48:08 23° N 02:51:37 10° ENE visible
11 Apr - 04:31:24 10° WNW 04:34:59 25° N 04:39:09 10° NE visible
11 Apr - 06:18:54 10° NW 06:22:01 16° NNW 06:25:29 10° NNE daylight
12 Apr - 00:36:29 10° N 00:37:03 10° NNE 00:37:39 10° NNE night (unlit)
12 Apr - 02:20:41 10° NW 02:23:39 22° N 02:26:52 10° ENE night (unlit)
12 Apr - 04:07:06 10° WNW 04:10:27 24° N 04:14:15 10° NE visible
12 Apr - 05:54:45 10° NW 05:57:24 15° NNW 06:00:19 10° NNE visible
13 Apr - 00:11:54 10° N 00:12:33 10° NNE 00:13:13 10° NNE night (unlit)
13 Apr - 01:56:19 10° NW 01:59:09 21° N 02:02:11 10° ENE night (unlit)
13 Apr - 03:42:49 10° WNW 03:45:55 22° N 03:49:24 10° NE visible
13 Apr - 05:30:39 10° NW 05:32:49 13° NNW 05:35:09 10° NNE visible
13 Apr - 23:47:08 10° N 23:48:02 11° NNE 23:48:57 10° NNE night (unlit)
